Location: Branche des Alpilles
(43.6087°N, 4.6976°E)
Time: 03:34:56
(UTC+00:00)

Meteor 1-4 Rocket - Pass Details

Date: 30 November 2020
Orbit: 449 x 500 km, 81.2° (Epoch: 24 January)

Event Time Altitude Azimuth Distance (km) Brightness Sun altitude
Rises 17:56:45 0° 206° (SSW) 2,527 6.8 -19.5°
Reaches altitude 10° 17:58:58 10° 215° (SW) 1,644 5.9 -19.9°
Maximum altitude 18:02:19 37° 284° (WNW) 752 4.0 -20.5°
Enters shadow 18:05:28 11° 352° (N) 1,556 5.1 -21.1°
